STARLINK-34403

Last updated on Thu Jul 03 2025 00:02:07 GMT+0000 (Coordinated Universal Time)

1 64443U 25130F 25183.58335648 -.01115194 00000+0 -80902-2 0 9997 2 64443 53.1560 179.7749 0001102 54.4757 65.3358 15.75349388 3515
UTC large
Height (km)
Speed (km/s)
/
Latitude / Longitude
Inclination (degrees)
Orbital Period (minutes)
Azimuth
Elevation
Range (km)
Doppler Factor

Next 0 passes for location: London (51.5072 / 0.1276)

Sorry there are no passes over London.